Year,Month,Day,Hour,Minute,Value (Times are PST for temperature in C)
2012,11,08,01,59,8.20
2012,11,08,02,00,8.20
2012,11,08,02,01,8.20
2012,11,08,02,02,8.20
2012,11,08,02,03,8.20
2012,11,08,02,04,8.20
2012,11,08,02,05,8.20
2012,11,08,02,06,8.20
2012,11,08,02,07,8.20
2012,11,08,02,08,8.20
2012,11,08,02,09,8.20
2012,11,08,02,10,8.20
2012,11,08,02,11,8.20
2012,11,08,02,12,8.20
2012,11,08,02,13,8.20
2012,11,08,02,14,8.20
2012,11,08,02,15,8.20
2012,11,08,02,16,8.20
2012,11,08,02,17,8.20
2012,11,08,02,18,8.20
2012,11,08,02,19,8.20
2012,11,08,02,20,8.20
2012,11,08,02,21,8.20
2012,11,08,02,22,8.20
2012,11,08,02,23,8.20
2012,11,08,02,24,8.20
2012,11,08,02,25,8.20
2012,11,08,02,26,8.20
2012,11,08,02,27,8.20
2012,11,08,02,28,8.20
2012,11,08,02,29,8.20
2012,11,08,02,30,8.20
2012,11,08,02,31,8.20
2012,11,08,02,32,8.20
2012,11,08,02,33,8.20
2012,11,08,02,34,8.20
2012,11,08,02,35,8.20
2012,11,08,02,36,8.20
2012,11,08,02,37,8.20
2012,11,08,02,38,8.20
2012,11,08,02,39,8.20
2012,11,08,02,40,8.20
2012,11,08,02,41,8.20
2012,11,08,02,42,8.20
2012,11,08,02,43,8.20
2012,11,08,02,44,8.20
2012,11,08,02,45,8.20
2012,11,08,02,46,8.20
2012,11,08,02,47,8.20
2012,11,08,02,48,8.20
2012,11,08,02,49,8.20
2012,11,08,02,50,8.20
2012,11,08,02,51,8.20
2012,11,08,02,52,8.20
2012,11,08,02,53,8.20
2012,11,08,02,54,8.20
2012,11,08,02,55,8.20
2012,11,08,02,56,8.20
2012,11,08,02,57,8.20
2012,11,08,02,58,8.20
2012,11,08,02,59,8.10
2012,11,08,03,00,8.10
2012,11,08,03,01,8.10
2012,11,08,03,02,8.10
2012,11,08,03,03,8.10
2012,11,08,03,04,8.10
2012,11,08,03,05,8.10
2012,11,08,03,06,8.10
2012,11,08,03,07,8.10
2012,11,08,03,08,8.10
2012,11,08,03,09,8.10
2012,11,08,03,10,8.10
2012,11,08,03,11,8.10
2012,11,08,03,12,8.10
2012,11,08,03,13,8.10
2012,11,08,03,14,8.10
2012,11,08,03,15,8.10
2012,11,08,03,16,8.10
2012,11,08,03,17,8.10
2012,11,08,03,18,8.10
2012,11,08,03,19,8.10
2012,11,08,03,20,8.10
2012,11,08,03,21,8.10
2012,11,08,03,22,8.10
2012,11,08,03,23,8.10
2012,11,08,03,24,8.10
2012,11,08,03,25,8.10
2012,11,08,03,26,8.10
2012,11,08,03,27,8.10
2012,11,08,03,28,8.10
2012,11,08,03,29,8.10
2012,11,08,03,30,8.10
2012,11,08,03,31,8.10
2012,11,08,03,32,8.10
2012,11,08,03,33,8.10
2012,11,08,03,34,8.10
2012,11,08,03,35,8.10
2012,11,08,03,36,8.10
2012,11,08,03,37,8.10
2012,11,08,03,38,8.10
2012,11,08,03,39,8.10
2012,11,08,03,40,8.10
2012,11,08,03,41,8.10
2012,11,08,03,42,8.10
2012,11,08,03,43,8.10
2012,11,08,03,44,8.10
2012,11,08,03,45,8.10
2012,11,08,03,46,8.10
2012,11,08,03,47,8.10
2012,11,08,03,48,8.10
2012,11,08,03,49,8.10
2012,11,08,03,50,8.10
2012,11,08,03,51,8.10
2012,11,08,03,52,8.10
2012,11,08,03,53,8.10
2012,11,08,03,54,8.10
2012,11,08,03,55,8.10
2012,11,08,03,56,8.10
2012,11,08,03,57,8.10
2012,11,08,03,58,8.10
2012,11,08,03,59,7.90
2012,11,08,04,00,7.90
2012,11,08,04,01,7.90
2012,11,08,04,02,7.90
2012,11,08,04,03,7.90
2012,11,08,04,04,7.90
2012,11,08,04,05,7.90
2012,11,08,04,06,7.90
2012,11,08,04,07,7.90
2012,11,08,04,08,7.90
2012,11,08,04,09,7.90
2012,11,08,04,10,7.90
2012,11,08,04,11,7.90
2012,11,08,04,12,7.90
2012,11,08,04,13,7.90
2012,11,08,04,14,7.90
2012,11,08,04,15,7.90
2012,11,08,04,16,7.90
2012,11,08,04,17,7.90
2012,11,08,04,18,7.90
2012,11,08,04,19,7.90
2012,11,08,04,20,7.90
2012,11,08,04,21,7.90
2012,11,08,04,22,7.90
2012,11,08,04,23,7.90
2012,11,08,04,24,7.90
2012,11,08,04,25,7.90
2012,11,08,04,26,7.90
2012,11,08,04,27,7.90
2012,11,08,04,28,7.90
2012,11,08,04,29,7.80
2012,11,08,04,30,7.80
2012,11,08,04,31,7.80
2012,11,08,04,32,7.80
2012,11,08,04,33,7.80
2012,11,08,04,34,7.80
2012,11,08,04,35,7.80
2012,11,08,04,36,7.80
2012,11,08,04,37,7.80
2012,11,08,04,38,7.80
2012,11,08,04,39,7.80
2012,11,08,04,40,7.80
2012,11,08,04,41,7.80
2012,11,08,04,42,7.80
2012,11,08,04,43,7.80
2012,11,08,04,44,7.80
2012,11,08,04,45,7.80
2012,11,08,04,46,7.80
2012,11,08,04,47,7.80
2012,11,08,04,48,7.80
2012,11,08,04,49,7.80
2012,11,08,04,50,7.80
2012,11,08,04,51,7.80
2012,11,08,04,52,7.80
2012,11,08,04,53,7.80
2012,11,08,04,54,7.80
2012,11,08,04,55,7.80
2012,11,08,04,56,7.80
2012,11,08,04,57,7.80
2012,11,08,04,58,7.80
2012,11,08,04,59,7.80
2012,11,08,05,00,7.80
2012,11,08,05,01,7.80
2012,11,08,05,02,7.80
2012,11,08,05,03,7.80
2012,11,08,05,04,7.80
2012,11,08,05,05,7.80
2012,11,08,05,06,7.80
2012,11,08,05,07,7.80
2012,11,08,05,08,7.80
2012,11,08,05,09,7.80
2012,11,08,05,10,7.80
2012,11,08,05,11,7.80
2012,11,08,05,12,7.80
2012,11,08,05,13,7.80
2012,11,08,05,14,7.80
2012,11,08,05,15,7.80
2012,11,08,05,16,7.80
2012,11,08,05,17,7.80
2012,11,08,05,18,7.80
2012,11,08,05,19,7.80
2012,11,08,05,20,7.80
2012,11,08,05,21,7.80
2012,11,08,05,22,7.80
2012,11,08,05,23,7.80
2012,11,08,05,24,7.80
2012,11,08,05,25,7.80
2012,11,08,05,26,7.80
2012,11,08,05,27,7.80
2012,11,08,05,28,7.80
2012,11,08,05,29,7.70
2012,11,08,05,30,7.70
2012,11,08,05,31,7.70
2012,11,08,05,32,7.70
2012,11,08,05,33,7.70
2012,11,08,05,34,7.70
2012,11,08,05,35,7.70
2012,11,08,05,36,7.70
2012,11,08,05,37,7.70
2012,11,08,05,38,7.70
2012,11,08,05,39,7.70
2012,11,08,05,40,7.70
2012,11,08,05,41,7.70
2012,11,08,05,42,7.70
2012,11,08,05,43,7.70
2012,11,08,05,44,7.70
2012,11,08,05,45,7.70
2012,11,08,05,46,7.70
2012,11,08,05,47,7.70
2012,11,08,05,48,7.70
2012,11,08,05,49,7.70
2012,11,08,05,50,7.70
2012,11,08,05,51,7.70
2012,11,08,05,52,7.70
2012,11,08,05,53,7.70
2012,11,08,05,54,7.70
2012,11,08,05,55,7.70
2012,11,08,05,56,7.70
2012,11,08,05,57,7.70
2012,11,08,05,58,7.70
2012,11,08,05,59,7.80
2012,11,08,06,00,7.80
2012,11,08,06,01,7.80
2012,11,08,06,02,7.80
2012,11,08,06,03,7.80
2012,11,08,06,04,7.80
2012,11,08,06,05,7.80
2012,11,08,06,06,7.80
2012,11,08,06,07,7.80
2012,11,08,06,08,7.80
2012,11,08,06,09,7.80
2012,11,08,06,10,7.80
2012,11,08,06,11,7.80
2012,11,08,06,12,7.80
2012,11,08,06,13,7.80
2012,11,08,06,14,7.80
2012,11,08,06,15,7.80
2012,11,08,06,16,7.80
2012,11,08,06,17,7.80
2012,11,08,06,18,7.80
2012,11,08,06,19,7.80
2012,11,08,06,20,7.80
2012,11,08,06,21,7.80
2012,11,08,06,22,7.80
2012,11,08,06,23,7.80
2012,11,08,06,24,7.80
2012,11,08,06,25,7.80
2012,11,08,06,26,7.80
2012,11,08,06,27,7.80
2012,11,08,06,28,7.80
2012,11,08,06,29,7.70
2012,11,08,06,30,7.70
2012,11,08,06,31,7.70
2012,11,08,06,32,7.70
2012,11,08,06,33,7.70
2012,11,08,06,34,7.70
2012,11,08,06,35,7.70
2012,11,08,06,36,7.70
2012,11,08,06,37,7.70
2012,11,08,06,38,7.70
2012,11,08,06,39,7.70
2012,11,08,06,40,7.70
2012,11,08,06,41,7.70
2012,11,08,06,42,7.70
2012,11,08,06,43,7.70
2012,11,08,06,44,7.70
2012,11,08,06,45,7.70
2012,11,08,06,46,7.70
2012,11,08,06,47,7.70
2012,11,08,06,48,7.70
2012,11,08,06,49,7.70
2012,11,08,06,50,7.70
2012,11,08,06,51,7.70
2012,11,08,06,52,7.70
2012,11,08,06,53,7.70
2012,11,08,06,54,7.70
2012,11,08,06,55,7.70
2012,11,08,06,56,7.70
2012,11,08,06,57,7.70
2012,11,08,06,58,7.70
2012,11,08,06,59,7.60
2012,11,08,07,00,7.60
2012,11,08,07,01,7.60
2012,11,08,07,02,7.60
2012,11,08,07,03,7.60
2012,11,08,07,04,7.60
2012,11,08,07,05,7.60
2012,11,08,07,06,7.60
2012,11,08,07,07,7.60
2012,11,08,07,08,7.60
2012,11,08,07,09,7.60
2012,11,08,07,10,7.60
2012,11,08,07,11,7.60
2012,11,08,07,12,7.60
2012,11,08,07,13,7.60
2012,11,08,07,14,7.60
2012,11,08,07,15,7.60
2012,11,08,07,16,7.60
2012,11,08,07,17,7.60
2012,11,08,07,18,7.60
2012,11,08,07,19,7.60
2012,11,08,07,20,7.60
2012,11,08,07,21,7.60
2012,11,08,07,22,7.60
2012,11,08,07,23,7.60
2012,11,08,07,24,7.60
2012,11,08,07,25,7.60
2012,11,08,07,26,7.60
2012,11,08,07,27,7.60
2012,11,08,07,28,7.60
2012,11,08,07,29,7.40
2012,11,08,07,30,7.40
2012,11,08,07,31,7.40
2012,11,08,07,32,7.40
2012,11,08,07,33,7.40
2012,11,08,07,34,7.40
2012,11,08,07,35,7.40
2012,11,08,07,36,7.40
2012,11,08,07,37,7.40
2012,11,08,07,38,7.40
2012,11,08,07,39,7.40
2012,11,08,07,40,7.40
2012,11,08,07,41,7.40
2012,11,08,07,42,7.40
2012,11,08,07,43,7.40
2012,11,08,07,44,7.40
2012,11,08,07,45,7.40
2012,11,08,07,46,7.40
2012,11,08,07,47,7.40
2012,11,08,07,48,7.40
2012,11,08,07,49,7.40
2012,11,08,07,50,7.40
2012,11,08,07,51,7.40
2012,11,08,07,52,7.40
2012,11,08,07,53,7.40
2012,11,08,07,54,7.40
2012,11,08,07,55,7.40
2012,11,08,07,56,7.40
2012,11,08,07,57,7.40
2012,11,08,07,58,7.40
2012,11,08,07,59,7.30
2012,11,08,08,00,7.30
2012,11,08,08,01,7.30
2012,11,08,08,02,7.30
2012,11,08,08,03,7.30
2012,11,08,08,04,7.30
2012,11,08,08,05,7.30
2012,11,08,08,06,7.30
2012,11,08,08,07,7.30
2012,11,08,08,08,7.30
2012,11,08,08,09,7.30
2012,11,08,08,10,7.30
2012,11,08,08,11,7.30
2012,11,08,08,12,7.30
2012,11,08,08,13,7.30
2012,11,08,08,14,7.30
2012,11,08,08,15,7.30
2012,11,08,08,16,7.30
2012,11,08,08,17,7.30
2012,11,08,08,18,7.30
2012,11,08,08,19,7.30
2012,11,08,08,20,7.30
2012,11,08,08,21,7.30
2012,11,08,08,22,7.30
2012,11,08,08,23,7.30
2012,11,08,08,24,7.30
2012,11,08,08,25,7.30
2012,11,08,08,26,7.30
2012,11,08,08,27,7.30
2012,11,08,08,28,7.30
2012,11,08,08,29,7.30
2012,11,08,08,30,7.30
2012,11,08,08,31,7.30
2012,11,08,08,32,7.30
2012,11,08,08,33,7.30
2012,11,08,08,34,7.30
2012,11,08,08,35,7.30
2012,11,08,08,36,7.30
2012,11,08,08,37,7.30
2012,11,08,08,38,7.30
2012,11,08,08,39,7.30
2012,11,08,08,40,7.30
2012,11,08,08,41,7.30
2012,11,08,08,42,7.30
2012,11,08,08,43,7.30
2012,11,08,08,44,7.30
2012,11,08,08,45,7.30
2012,11,08,08,46,7.30
2012,11,08,08,47,7.30
2012,11,08,08,48,7.30
2012,11,08,08,49,7.30
2012,11,08,08,50,7.30
2012,11,08,08,51,7.30
2012,11,08,08,52,7.30
2012,11,08,08,53,7.30
2012,11,08,08,54,7.30
2012,11,08,08,55,7.30
2012,11,08,08,56,7.30
2012,11,08,08,57,7.30
2012,11,08,08,58,7.30
2012,11,08,08,59,7.40
2012,11,08,09,00,7.40
2012,11,08,09,01,7.40
2012,11,08,09,02,7.40
2012,11,08,09,03,7.40
2012,11,08,09,04,7.40
2012,11,08,09,05,7.40
2012,11,08,09,06,7.40
2012,11,08,09,07,7.40
2012,11,08,09,08,7.40
2012,11,08,09,09,7.40
2012,11,08,09,10,7.40
2012,11,08,09,11,7.40
2012,11,08,09,12,7.40
2012,11,08,09,13,7.40
2012,11,08,09,14,7.40
2012,11,08,09,15,7.40
2012,11,08,09,16,7.40
2012,11,08,09,17,7.40
2012,11,08,09,18,7.40
2012,11,08,09,19,7.40
2012,11,08,09,20,7.40
2012,11,08,09,21,7.40
2012,11,08,09,22,7.40
2012,11,08,09,23,7.40
2012,11,08,09,24,7.40
2012,11,08,09,25,7.40
2012,11,08,09,26,7.40
2012,11,08,09,27,7.40
2012,11,08,09,28,7.40
2012,11,08,09,29,7.50
2012,11,08,09,30,7.50
2012,11,08,09,31,7.50
2012,11,08,09,32,7.50
2012,11,08,09,33,7.50
2012,11,08,09,34,7.50
2012,11,08,09,35,7.50
2012,11,08,09,36,7.50
2012,11,08,09,37,7.50
2012,11,08,09,38,7.50
2012,11,08,09,39,7.50
2012,11,08,09,40,7.50
2012,11,08,09,41,7.50
2012,11,08,09,42,7.50
2012,11,08,09,43,7.50
2012,11,08,09,44,7.50
2012,11,08,09,45,7.50
2012,11,08,09,46,7.50
2012,11,08,09,47,7.50
2012,11,08,09,48,7.50
2012,11,08,09,49,7.50
2012,11,08,09,50,7.50
2012,11,08,09,51,7.50
2012,11,08,09,52,7.50
2012,11,08,09,53,7.50
2012,11,08,09,54,7.50
2012,11,08,09,55,7.50
2012,11,08,09,56,7.50
2012,11,08,09,57,7.50
2012,11,08,09,58,7.50
2012,11,08,09,59,7.90
2012,11,08,10,00,7.90
2012,11,08,10,01,7.90
2012,11,08,10,02,7.90
2012,11,08,10,03,7.90
2012,11,08,10,04,7.90
2012,11,08,10,05,7.90
2012,11,08,10,06,7.90
2012,11,08,10,07,7.90
2012,11,08,10,08,7.90
2012,11,08,10,09,7.90
2012,11,08,10,10,7.90
2012,11,08,10,11,7.90
2012,11,08,10,12,7.90
2012,11,08,10,13,7.90
2012,11,08,10,14,7.90
2012,11,08,10,15,7.90
2012,11,08,10,16,7.90
2012,11,08,10,17,7.90
2012,11,08,10,18,7.90
2012,11,08,10,19,7.90
2012,11,08,10,20,7.90
2012,11,08,10,21,7.90
2012,11,08,10,22,7.90
2012,11,08,10,23,7.90
2012,11,08,10,24,7.90
2012,11,08,10,25,7.90
2012,11,08,10,26,7.90
2012,11,08,10,27,7.90
2012,11,08,10,28,7.90
2012,11,08,10,29,8.50
2012,11,08,10,30,8.50
2012,11,08,10,31,8.50
2012,11,08,10,32,8.50
2012,11,08,10,33,8.50
2012,11,08,10,34,8.50
2012,11,08,10,35,8.50
2012,11,08,10,36,8.50
2012,11,08,10,37,8.50
2012,11,08,10,38,8.50
2012,11,08,10,39,8.50
2012,11,08,10,40,8.50
2012,11,08,10,41,8.50
2012,11,08,10,42,8.50
2012,11,08,10,43,8.50
2012,11,08,10,44,8.50
2012,11,08,10,45,8.50
2012,11,08,10,46,8.50
2012,11,08,10,47,8.50
2012,11,08,10,48,8.50
2012,11,08,10,49,8.50
2012,11,08,10,50,8.50
2012,11,08,10,51,8.50
2012,11,08,10,52,8.50
2012,11,08,10,53,8.50
2012,11,08,10,54,8.50
2012,11,08,10,55,8.50
2012,11,08,10,56,8.50
2012,11,08,10,57,8.50
2012,11,08,10,58,8.50
2012,11,08,10,59,8.70
2012,11,08,11,00,8.70
2012,11,08,11,01,8.70
2012,11,08,11,02,8.70
2012,11,08,11,03,8.70
2012,11,08,11,04,8.70
2012,11,08,11,05,8.70
2012,11,08,11,06,8.70
2012,11,08,11,07,8.70
2012,11,08,11,08,8.70
2012,11,08,11,09,8.70
2012,11,08,11,10,8.70
2012,11,08,11,11,8.70
2012,11,08,11,12,8.70
2012,11,08,11,13,8.70
2012,11,08,11,14,8.70
2012,11,08,11,15,8.70
2012,11,08,11,16,8.70
2012,11,08,11,17,8.70
2012,11,08,11,18,8.70
2012,11,08,11,19,8.70
2012,11,08,11,20,8.70
2012,11,08,11,21,8.70
2012,11,08,11,22,8.70
2012,11,08,11,23,8.70
2012,11,08,11,24,8.70
2012,11,08,11,25,8.70
2012,11,08,11,26,8.70
2012,11,08,11,27,8.70
2012,11,08,11,28,8.70
2012,11,08,11,29,9.30
2012,11,08,11,30,9.30
2012,11,08,11,31,9.30
2012,11,08,11,32,9.30
2012,11,08,11,33,9.30
2012,11,08,11,34,9.30
2012,11,08,11,35,9.30
2012,11,08,11,36,9.30
2012,11,08,11,37,9.30
2012,11,08,11,38,9.30
2012,11,08,11,39,9.30
2012,11,08,11,40,9.30
2012,11,08,11,41,9.30
2012,11,08,11,42,9.30
2012,11,08,11,43,9.30
2012,11,08,11,44,9.30
2012,11,08,11,45,9.30
2012,11,08,11,46,9.30
2012,11,08,11,47,9.30
2012,11,08,11,48,9.30
2012,11,08,11,49,9.30
2012,11,08,11,50,9.30
2012,11,08,11,51,9.30
2012,11,08,11,52,9.30
2012,11,08,11,53,9.30
2012,11,08,11,54,9.30
2012,11,08,11,55,9.30
2012,11,08,11,56,9.30
2012,11,08,11,57,9.30
2012,11,08,11,58,9.30
2012,11,08,11,59,9.40
2012,11,08,12,00,9.40
2012,11,08,12,01,9.40
2012,11,08,12,02,9.40
2012,11,08,12,03,9.40
2012,11,08,12,04,9.40
2012,11,08,12,05,9.40
2012,11,08,12,06,9.40
2012,11,08,12,07,9.40
2012,11,08,12,08,9.40
2012,11,08,12,09,9.40
2012,11,08,12,10,9.40
2012,11,08,12,11,9.40
2012,11,08,12,12,9.40
2012,11,08,12,13,9.40
2012,11,08,12,14,9.40
2012,11,08,12,15,9.40
2012,11,08,12,16,9.40
2012,11,08,12,17,9.40
2012,11,08,12,18,9.40
2012,11,08,12,19,9.40
2012,11,08,12,20,9.40
2012,11,08,12,21,9.40
2012,11,08,12,22,9.40
2012,11,08,12,23,9.40
2012,11,08,12,24,9.40
2012,11,08,12,25,9.40
2012,11,08,12,26,9.40
2012,11,08,12,27,9.40
2012,11,08,12,28,9.40
2012,11,08,12,29,9.50
2012,11,08,12,30,9.50
2012,11,08,12,31,9.50
2012,11,08,12,32,9.50
2012,11,08,12,33,9.50
2012,11,08,12,34,9.50
2012,11,08,12,35,9.50
2012,11,08,12,36,9.50
2012,11,08,12,37,9.50
2012,11,08,12,38,9.50
2012,11,08,12,39,9.50
2012,11,08,12,40,9.50
2012,11,08,12,41,9.50
2012,11,08,12,42,9.50
2012,11,08,12,43,9.50
2012,11,08,12,44,9.50
2012,11,08,12,45,9.50
2012,11,08,12,46,9.50
2012,11,08,12,47,9.50
2012,11,08,12,48,9.50
2012,11,08,12,49,9.50
2012,11,08,12,50,9.50
2012,11,08,12,51,9.50
2012,11,08,12,52,9.50
2012,11,08,12,53,9.50
2012,11,08,12,54,9.50
2012,11,08,12,55,9.50
2012,11,08,12,56,9.50
2012,11,08,12,57,9.50
2012,11,08,12,58,9.50
2012,11,08,12,59,9.40
2012,11,08,13,00,9.40
2012,11,08,13,01,9.40
2012,11,08,13,02,9.40
2012,11,08,13,03,9.40
2012,11,08,13,04,9.40
2012,11,08,13,05,9.40
2012,11,08,13,06,9.40
2012,11,08,13,07,9.40
2012,11,08,13,08,9.40
2012,11,08,13,09,9.40
2012,11,08,13,10,9.40
2012,11,08,13,11,9.40
2012,11,08,13,12,9.40
2012,11,08,13,13,9.40
2012,11,08,13,14,9.40
2012,11,08,13,15,9.40
2012,11,08,13,16,9.40
2012,11,08,13,17,9.40
2012,11,08,13,18,9.40
2012,11,08,13,19,9.40
2012,11,08,13,20,9.40
2012,11,08,13,21,9.40
2012,11,08,13,22,9.40
2012,11,08,13,23,9.40
2012,11,08,13,24,9.40
2012,11,08,13,25,9.40
2012,11,08,13,26,9.40
2012,11,08,13,27,9.40
2012,11,08,13,28,9.40
2012,11,08,13,29,9.60
2012,11,08,13,30,9.60
2012,11,08,13,31,9.60
2012,11,08,13,32,9.60
2012,11,08,13,33,9.60
2012,11,08,13,34,9.60
2012,11,08,13,35,9.60
2012,11,08,13,36,9.60
2012,11,08,13,37,9.60
2012,11,08,13,38,9.60
2012,11,08,13,39,9.60
2012,11,08,13,40,9.60
2012,11,08,13,41,9.60
2012,11,08,13,42,9.60
2012,11,08,13,43,9.60
2012,11,08,13,44,9.60
2012,11,08,13,45,9.60
2012,11,08,13,46,9.60
2012,11,08,13,47,9.60
2012,11,08,13,48,9.60
2012,11,08,13,49,9.60
2012,11,08,13,50,9.60
2012,11,08,13,51,9.60
2012,11,08,13,52,9.60
2012,11,08,13,53,9.60
2012,11,08,13,54,9.60
2012,11,08,13,55,9.60
2012,11,08,13,56,9.60
2012,11,08,13,57,9.60
2012,11,08,13,58,9.60
2012,11,08,13,59,9.40
2012,11,08,14,00,9.40
2012,11,08,14,01,9.40
2012,11,08,14,02,9.40
2012,11,08,14,03,9.40
2012,11,08,14,04,9.40
2012,11,08,14,05,9.40
2012,11,08,14,06,9.40
2012,11,08,14,07,9.40
2012,11,08,14,08,9.40
2012,11,08,14,09,9.40
2012,11,08,14,10,9.40
2012,11,08,14,11,9.40
2012,11,08,14,12,9.40
2012,11,08,14,13,9.40
2012,11,08,14,14,9.40
2012,11,08,14,15,9.40
2012,11,08,14,16,9.40
2012,11,08,14,17,9.40
2012,11,08,14,18,9.40
2012,11,08,14,19,9.40
2012,11,08,14,20,9.40
2012,11,08,14,21,9.40
2012,11,08,14,22,9.40
2012,11,08,14,23,9.40
2012,11,08,14,24,9.40
2012,11,08,14,25,9.40
2012,11,08,14,26,9.40
2012,11,08,14,27,9.40
2012,11,08,14,28,9.40
2012,11,08,14,29,9.40
2012,11,08,14,30,9.40
2012,11,08,14,31,9.40
2012,11,08,14,32,9.40
2012,11,08,14,33,9.40
2012,11,08,14,34,9.40
2012,11,08,14,35,9.40
2012,11,08,14,36,9.40
2012,11,08,14,37,9.40
2012,11,08,14,38,9.40
2012,11,08,14,39,9.40
2012,11,08,14,40,9.40
2012,11,08,14,41,9.40
2012,11,08,14,42,9.40
2012,11,08,14,43,9.40
2012,11,08,14,44,9.40
2012,11,08,14,45,9.40
2012,11,08,14,46,9.40
2012,11,08,14,47,9.40
2012,11,08,14,48,9.40
2012,11,08,14,49,9.40
2012,11,08,14,50,9.40
2012,11,08,14,51,9.40
2012,11,08,14,52,9.40
2012,11,08,14,53,9.40
2012,11,08,14,54,9.40
2012,11,08,14,55,9.40
2012,11,08,14,56,9.40
2012,11,08,14,57,9.40
2012,11,08,14,58,9.40
2012,11,08,14,59,9.60
2012,11,08,15,00,9.60
2012,11,08,15,01,9.60
2012,11,08,15,02,9.60
2012,11,08,15,03,9.60
2012,11,08,15,04,9.60
2012,11,08,15,05,9.60
2012,11,08,15,06,9.60
2012,11,08,15,07,9.60
2012,11,08,15,08,9.60
2012,11,08,15,09,9.60
2012,11,08,15,10,9.60
2012,11,08,15,11,9.60
2012,11,08,15,12,9.60
2012,11,08,15,13,9.60
2012,11,08,15,14,9.60
2012,11,08,15,15,9.60
2012,11,08,15,16,9.60
2012,11,08,15,17,9.60
2012,11,08,15,18,9.60
2012,11,08,15,19,9.60
2012,11,08,15,20,9.60
2012,11,08,15,21,9.60
2012,11,08,15,22,9.60
2012,11,08,15,23,9.60
2012,11,08,15,24,9.60
2012,11,08,15,25,9.60
2012,11,08,15,26,9.60
2012,11,08,15,27,9.60
2012,11,08,15,28,9.60
2012,11,08,15,29,9.70
2012,11,08,15,30,9.70
2012,11,08,15,31,9.70
2012,11,08,15,32,9.70
2012,11,08,15,33,9.70
2012,11,08,15,34,9.70
2012,11,08,15,35,9.70
2012,11,08,15,36,9.70
2012,11,08,15,37,9.70
2012,11,08,15,38,9.70
2012,11,08,15,39,9.70
2012,11,08,15,40,9.70
2012,11,08,15,41,9.70
2012,11,08,15,42,9.70
2012,11,08,15,43,9.70
2012,11,08,15,44,9.70
2012,11,08,15,45,9.70
2012,11,08,15,46,9.70
2012,11,08,15,47,9.70
2012,11,08,15,48,9.70
2012,11,08,15,49,9.70
2012,11,08,15,50,9.70
2012,11,08,15,51,9.70
2012,11,08,15,52,9.70
2012,11,08,15,53,9.70
2012,11,08,15,54,9.70
2012,11,08,15,55,9.70
2012,11,08,15,56,9.70
2012,11,08,15,57,9.70
2012,11,08,15,58,9.70
2012,11,08,15,59,9.70
2012,11,08,16,00,9.70
2012,11,08,16,01,9.70
2012,11,08,16,02,9.70
2012,11,08,16,03,9.70
2012,11,08,16,04,9.70
2012,11,08,16,05,9.70
2012,11,08,16,06,9.70
2012,11,08,16,07,9.70
2012,11,08,16,08,9.70
2012,11,08,16,09,9.70
2012,11,08,16,10,9.70
2012,11,08,16,11,9.70
2012,11,08,16,12,9.70
2012,11,08,16,13,9.70
2012,11,08,16,14,9.70
2012,11,08,16,15,9.70
2012,11,08,16,16,9.70
2012,11,08,16,17,9.70
2012,11,08,16,18,9.70
2012,11,08,16,19,9.70
2012,11,08,16,20,9.70
2012,11,08,16,21,9.70
2012,11,08,16,22,9.70
2012,11,08,16,23,9.70
2012,11,08,16,24,9.70
2012,11,08,16,25,9.70
2012,11,08,16,26,9.70
2012,11,08,16,27,9.70
2012,11,08,16,28,9.70
2012,11,08,16,29,9.40
2012,11,08,16,30,9.40
2012,11,08,16,31,9.40
2012,11,08,16,32,9.40
2012,11,08,16,33,9.40
2012,11,08,16,34,9.40
2012,11,08,16,35,9.40
2012,11,08,16,36,9.40
2012,11,08,16,37,9.40
2012,11,08,16,38,9.40
2012,11,08,16,39,9.40
2012,11,08,16,40,9.40
2012,11,08,16,41,9.40
2012,11,08,16,42,9.40
2012,11,08,16,43,9.40
2012,11,08,16,44,9.40
2012,11,08,16,45,9.40
2012,11,08,16,46,9.40
2012,11,08,16,47,9.40
2012,11,08,16,48,9.40
2012,11,08,16,49,9.40
2012,11,08,16,50,9.40
2012,11,08,16,51,9.40
2012,11,08,16,52,9.40
2012,11,08,16,53,9.40
2012,11,08,16,54,9.40
2012,11,08,16,55,9.40
2012,11,08,16,56,9.40
2012,11,08,16,57,9.40
2012,11,08,16,58,9.40
2012,11,08,16,59,9.20
2012,11,08,17,00,9.20
2012,11,08,17,01,9.20
2012,11,08,17,02,9.20
2012,11,08,17,03,9.20
2012,11,08,17,04,9.20
2012,11,08,17,05,9.20
2012,11,08,17,06,9.20
2012,11,08,17,07,9.20
2012,11,08,17,08,9.20
2012,11,08,17,09,9.20
2012,11,08,17,10,9.20
2012,11,08,17,11,9.20
2012,11,08,17,12,9.20
2012,11,08,17,13,9.20
2012,11,08,17,14,9.20
2012,11,08,17,15,9.20
2012,11,08,17,16,9.20
2012,11,08,17,17,9.20
2012,11,08,17,18,9.20
2012,11,08,17,19,9.20
2012,11,08,17,20,9.20
2012,11,08,17,21,9.20
2012,11,08,17,22,9.20
2012,11,08,17,23,9.20
2012,11,08,17,24,9.20
2012,11,08,17,25,9.20
2012,11,08,17,26,9.20
2012,11,08,17,27,9.20
2012,11,08,17,28,9.20
2012,11,08,17,29,8.60
2012,11,08,17,30,8.60
2012,11,08,17,31,8.60
2012,11,08,17,32,8.60
2012,11,08,17,33,8.60
2012,11,08,17,34,8.60
2012,11,08,17,35,8.60
2012,11,08,17,36,8.60
2012,11,08,17,37,8.60
2012,11,08,17,38,8.60
2012,11,08,17,39,8.60
2012,11,08,17,40,8.60
2012,11,08,17,41,8.60
2012,11,08,17,42,8.60
2012,11,08,17,43,8.60
2012,11,08,17,44,8.60
2012,11,08,17,45,8.60
2012,11,08,17,46,8.60
2012,11,08,17,47,8.60
2012,11,08,17,48,8.60
2012,11,08,17,49,8.60
2012,11,08,17,50,8.60
2012,11,08,17,51,8.60
2012,11,08,17,52,8.60
2012,11,08,17,53,8.60
2012,11,08,17,54,8.60
2012,11,08,17,55,8.60
2012,11,08,17,56,8.60
2012,11,08,17,57,8.60
2012,11,08,17,58,8.60
2012,11,08,17,59,8.10
2012,11,08,18,00,8.10
2012,11,08,18,01,8.10
2012,11,08,18,02,8.10
2012,11,08,18,03,8.10
2012,11,08,18,04,8.10
2012,11,08,18,05,8.10
2012,11,08,18,06,8.10
2012,11,08,18,07,8.10
2012,11,08,18,08,8.10
2012,11,08,18,09,8.10
2012,11,08,18,10,8.10
2012,11,08,18,11,8.10
2012,11,08,18,12,8.10
2012,11,08,18,13,8.10
2012,11,08,18,14,8.10
2012,11,08,18,15,8.10
2012,11,08,18,16,8.10
2012,11,08,18,17,8.10
2012,11,08,18,18,8.10
2012,11,08,18,19,8.10
2012,11,08,18,20,8.10
2012,11,08,18,21,8.10
2012,11,08,18,22,8.10
2012,11,08,18,23,8.10
2012,11,08,18,24,8.10
2012,11,08,18,25,8.10
2012,11,08,18,26,8.10
2012,11,08,18,27,8.10
2012,11,08,18,28,8.10
2012,11,08,18,29,8.20
2012,11,08,18,30,8.20
2012,11,08,18,31,8.20
2012,11,08,18,32,8.20
2012,11,08,18,33,8.20
2012,11,08,18,34,8.20
2012,11,08,18,35,8.20
2012,11,08,18,36,8.20
2012,11,08,18,37,8.20
2012,11,08,18,38,8.20
2012,11,08,18,39,8.20
2012,11,08,18,40,8.20
2012,11,08,18,41,8.20
2012,11,08,18,42,8.20
2012,11,08,18,43,8.20
2012,11,08,18,44,8.20
2012,11,08,18,45,8.20
2012,11,08,18,46,8.20
2012,11,08,18,47,8.20
2012,11,08,18,48,8.20
2012,11,08,18,49,8.20
2012,11,08,18,50,8.20
2012,11,08,18,51,8.20
2012,11,08,18,52,8.20
2012,11,08,18,53,8.20
2012,11,08,18,54,8.20
2012,11,08,18,55,8.20
2012,11,08,18,56,8.20
2012,11,08,18,57,8.20
2012,11,08,18,58,8.20
2012,11,08,18,59,7.40
2012,11,08,19,00,7.40
2012,11,08,19,01,7.40
2012,11,08,19,02,7.40
2012,11,08,19,03,7.40
2012,11,08,19,04,7.40
2012,11,08,19,05,7.40
2012,11,08,19,06,7.40
2012,11,08,19,07,7.40
2012,11,08,19,08,7.40
2012,11,08,19,09,7.40
2012,11,08,19,10,7.40
2012,11,08,19,11,7.40
2012,11,08,19,12,7.40
2012,11,08,19,13,7.40
2012,11,08,19,14,7.40
2012,11,08,19,15,7.40
2012,11,08,19,16,7.40
2012,11,08,19,17,7.40
2012,11,08,19,18,7.40
2012,11,08,19,19,7.40
2012,11,08,19,20,7.40
2012,11,08,19,21,7.40
2012,11,08,19,22,7.40
2012,11,08,19,23,7.40
2012,11,08,19,24,7.40
2012,11,08,19,25,7.40
2012,11,08,19,26,7.40
2012,11,08,19,27,7.40
2012,11,08,19,28,7.40
2012,11,08,19,29,7.20
2012,11,08,19,30,7.20
2012,11,08,19,31,7.20
2012,11,08,19,32,7.20
2012,11,08,19,33,7.20
2012,11,08,19,34,7.20
2012,11,08,19,35,7.20
2012,11,08,19,36,7.20
2012,11,08,19,37,7.20
2012,11,08,19,38,7.20
2012,11,08,19,39,7.20
2012,11,08,19,40,7.20
2012,11,08,19,41,7.20
2012,11,08,19,42,7.20
2012,11,08,19,43,7.20
2012,11,08,19,44,7.20
2012,11,08,19,45,7.20
2012,11,08,19,46,7.20
2012,11,08,19,47,7.20
2012,11,08,19,48,7.20
2012,11,08,19,49,7.20
2012,11,08,19,50,7.20
2012,11,08,19,51,7.20
2012,11,08,19,52,7.20
2012,11,08,19,53,7.20
2012,11,08,19,54,7.20
2012,11,08,19,55,7.20
2012,11,08,19,56,7.20
2012,11,08,19,57,7.20
2012,11,08,19,58,7.20
2012,11,08,19,59,7.10
2012,11,08,20,00,7.10
2012,11,08,20,01,7.10
2012,11,08,20,02,7.10
2012,11,08,20,03,7.10
2012,11,08,20,04,7.10
2012,11,08,20,05,7.10